| time (UTC) | temp C | wind direction | speed KPH | gust KPH | rain 1hr cm | rain 24hr cm | rain mn cm | humidity % | barometer mb |
| 20260902155544 | 17 | 140 | 6.4 | 0.0 | 0.00 | 0.00 | 0.00 | 89 | 1018.2 |
| 20260902155044 | 17 | 116 | 8.0 | 0.0 | 0.00 | 0.00 | 0.00 | 89 | 1018.2 |
| 20260902154545 | 17 | 159 | 6.4 | 0.0 | 0.00 | 0.00 | 0.00 | 89 | 1018.4 |
| 20260902154043 | 17 | 130 | 4.8 | 0.0 | 0.00 | 0.00 | 0.00 | 89 | 1018.5 |
| 20260902153542 | 17 | 129 | 4.8 | 0.0 | 0.00 | 0.00 | 0.00 | 88 | 1018.5 |
| 20260902153042 | 17 | 154 | 6.4 | 0.0 | 0.00 | 0.00 | 0.00 | 88 | 1018.4 |
| 20260902152541 | 17 | 148 | 6.4 | 0.0 | 0.00 | 0.00 | 0.00 | 88 | 1018.6 |
| 20260902152041 | 17 | 167 | 8.0 | 0.0 | 0.00 | 0.00 | 0.00 | 89 | 1018.6 |
| 20260902151542 | 17 | 119 | 8.0 | 0.0 | 0.00 | 0.00 | 0.00 | 89 | 1018.6 |
| 20260902151043 | 16 | 114 | 6.4 | 0.0 | 0.00 | 0.00 | 0.00 | 89 | 1018.7 |
| 20260902150540 | 16 | 128 | 4.8 | 0.0 | 0.00 | 0.00 | 0.00 | 89 | 1018.8 |
| 20260902150041 | 16 | 136 | 6.4 | 0.0 | 0.00 | 0.00 | 0.00 | 91 | 1018.7 |
| 20260902145541 | 16 | 132 | 6.4 | 0.0 | 0.00 | 0.00 | 0.00 | 90 | 1018.6 |
| 20260902145040 | 16 | 144 | 4.8 | 0.0 | 0.00 | 0.00 | 0.00 | 91 | 1018.6 |
| 20260902144541 | 16 | 192 | 8.0 | 0.0 | 0.00 | 0.00 | 0.00 | 91 | 1018.6 |
| 20260902144040 | 16 | 119 | 6.4 | 0.0 | 0.00 | 0.00 | 0.00 | 91 | 1018.6 |
| 20260902143539 | 16 | 148 | 8.0 | 0.0 | 0.00 | 0.00 | 0.00 | 92 | 1018.6 |
| 20260902143043 | 16 | 137 | 11.3 | 0.0 | 0.00 | 0.00 | 0.00 | 92 | 1018.6 |
| 20260902142539 | 16 | 130 | 9.7 | 0.0 | 0.00 | 0.00 | 0.00 | 93 | 1018.6 |
| 20260902142038 | 16 | 126 | 6.4 | 0.0 | 0.00 | 0.00 | 0.00 | 93 | 1018.7 |
| 20260902141537 | 16 | 113 | 4.8 | 0.0 | 0.00 | 0.00 | 0.00 | 92 | 1018.8 |
| 20260902141036 | 16 | 150 | 6.4 | 0.0 | 0.00 | 0.00 | 0.00 | 93 | 1018.7 |
| 20260902140540 | 16 | 133 | 8.0 | 0.0 | 0.00 | 0.00 | 0.00 | 93 | 1018.7 |
| 20260902140038 | 16 | 142 | 8.0 | 0.0 | 0.00 | 0.00 | 0.00 | 93 | 1018.5 |
| 20260902135539 | 16 | 146 | 6.4 | 0.0 | 0.00 | 0.00 | 0.00 | 92 | 1018.3 |
| 20260902135038 | 16 | 140 | 9.7 | 0.0 | 0.00 | 0.00 | 0.00 | 92 | 1018.4 |
| 20260902134540 | 16 | 156 | 9.7 | 0.0 | 0.00 | 0.00 | 0.00 | 92 | 1018.3 |
| 20260902134035 | 16 | 142 | 6.4 | 0.0 | 0.00 | 0.00 | 0.00 | 92 | 1018.4 |
| 20260902133534 | 16 | 132 | 6.4 | 0.0 | 0.00 | 0.00 | 0.00 | 91 | 1018.5 |
| 20260902133045 | 16 | 134 | 8.0 | 0.0 | 0.00 | 0.00 | 0.00 | 92 | 1018.4 |
| 20260902132533 | 16 | 139 | 8.0 | 0.0 | 0.00 | 0.00 | 0.00 | 92 | 1018.2 |
| 20260902132034 | 16 | 130 | 6.4 | 0.0 | 0.00 | 0.00 | 0.00 | 92 | 1018.3 |
| 20260902131535 | 16 | 161 | 6.4 | 0.0 | 0.00 | 0.00 | 0.00 | 92 | 1018.6 |
| 20260902131033 | 16 | 157 | 6.4 | 0.0 | 0.00 | 0.00 | 0.00 | 92 | 1018.6 |
| 20260902130532 | 16 | 157 | 4.8 | 0.0 | 0.00 | 0.00 | 0.00 | 92 | 1018.6 |
| 20260902130032 | 16 | 206 | 3.2 | 0.0 | 0.00 | 0.00 | 0.00 | 92 | 1018.6 |
| 20260902125531 | 17 | 132 | 4.8 | 0.0 | 0.00 | 0.00 | 0.00 | 92 | 1018.3 |
| 20260902125031 | 16 | 169 | 8.0 | 0.0 | 0.00 | 0.00 | 0.00 | 92 | 1018.2 |
| 20260902124531 | 17 | 165 | 8.0 | 0.0 | 0.00 | 0.00 | 0.00 | 92 | 1017.9 |
| 20260902124029 | 17 | 128 | 6.4 | 0.0 | 0.00 | 0.00 | 0.00 | 92 | 1018.1 |
| 20260902123529 | 17 | 120 | 4.8 | 0.0 | 0.00 | 0.00 | 0.00 | 92 | 1017.9 |
| 20260902123031 | 17 | 157 | 8.0 | 0.0 | 0.00 | 0.00 | 0.00 | 92 | 1017.8 |
| 20260902122529 | 17 | 131 | 11.3 | 0.0 | 0.00 | 0.00 | 0.00 | 92 | 1017.6 |
| 20260902122028 | 17 | 159 | 9.7 | 0.0 | 0.00 | 0.00 | 0.00 | 92 | 1017.9 |
| 20260902121528 | 17 | 128 | 8.0 | 0.0 | 0.00 | 0.00 | 0.00 | 92 | 1018.1 |
| 20260902121028 | 17 | 155 | 6.4 | 0.0 | 0.00 | 0.00 | 0.00 | 92 | 1018.1 |
| 20260902120529 | 16 | 138 | 6.4 | 0.0 | 0.00 | 0.00 | 0.00 | 92 | 1018.1 |
| 20260902120037 | 17 | 213 | 8.0 | 0.0 | 0.00 | 0.00 | 0.00 | 92 | 1017.8 |
| 20260902115530 | 17 | 136 | 8.0 | 0.0 | 0.00 | 0.00 | 0.00 | 92 | 1017.7 |
| 20260902115031 | 16 | 144 | 9.7 | 0.0 | 0.00 | 0.00 | 0.00 | 92 | 1017.8 |
| 20260902114533 | 17 | 108 | 9.7 | 0.0 | 0.00 | 0.00 | 0.00 | 92 | 1017.7 |
| 20260902114030 | 16 | 116 | 6.4 | 0.0 | 0.00 | 0.00 | 0.00 | 92 | 1017.8 |
| 20260902113526 | 16 | 112 | 4.8 | 0.0 | 0.00 | 0.00 | 0.00 | 92 | 1017.8 |
| 20260902113026 | 16 | 158 | 6.4 | 0.0 | 0.00 | 0.00 | 0.00 | 92 | 1017.8 |
| 20260902112526 | 16 | 134 | 6.4 | 0.0 | 0.00 | 0.00 | 0.00 | 92 | 1017.6 |
| 20260902112026 | 16 | 139 | 6.4 | 0.0 | 0.00 | 0.00 | 0.00 | 92 | 1017.6 |
| 20260902111539 | 16 | 150 | 8.0 | 0.0 | 0.00 | 0.00 | 0.00 | 93 | 1017.7 |
| 20260902111025 | 16 | 144 | 8.0 | 0.0 | 0.00 | 0.00 | 0.00 | 93 | 1017.8 |
| 20260902110526 | 16 | 142 | 6.4 | 0.0 | 0.00 | 0.00 | 0.00 | 93 | 1017.9 |
| 20260902110049 | 16 | 125 | 4.8 | 0.0 | 0.00 | 0.00 | 0.00 | 93 | 1018.0 |
| 20260902105525 | 16 | 144 | 4.8 | 0.0 | 0.00 | 0.00 | 0.00 | 93 | 1018.2 |
| 20260902105025 | 16 | 118 | 3.2 | 0.0 | 0.00 | 0.00 | 0.00 | 92 | 1018.2 |
| 20260902104529 | 16 | 139 | 3.2 | 0.0 | 0.00 | 0.00 | 0.00 | 93 | 1018.2 |
| 20260902104024 | 16 | 144 | 1.6 | 0.0 | 0.00 | 0.00 | 0.00 | 93 | 1018.2 |
| 20260902103523 | 16 | 169 | 0.0 | 0.0 | 0.00 | 0.00 | 0.00 | 92 | 1018.2 |
| 20260902103023 | 16 | 165 | 1.6 | 0.0 | 0.00 | 0.00 | 0.00 | 92 | 1018.1 |
| 20260902102523 | 16 | 165 | 1.6 | 0.0 | 0.00 | 0.00 | 0.00 | 92 | 1018.0 |
| 20260902102023 | 16 | 138 | 1.6 | 0.0 | 0.00 | 0.00 | 0.00 | 93 | 1017.9 |
| 20260902101523 | 16 | 165 | 1.6 | 0.0 | 0.00 | 0.00 | 0.00 | 92 | 1018.1 |
| 20260902101022 | 16 | 192 | 3.2 | 0.0 | 0.00 | 0.00 | 0.00 | 92 | 1018.1 |
| 20260902100525 | 16 | 167 | 1.6 | 0.0 | 0.00 | 0.00 | 0.00 | 93 | 1018.0 |
| 20260902100022 | 16 | 157 | 1.6 | 0.0 | 0.00 | 0.00 | 0.00 | 93 | 1018.0 |
| 20260902095522 | 16 | 219 | 1.6 | 0.0 | 0.00 | 0.00 | 0.00 | 93 | 1017.9 |
| 20260902095021 | 16 | 163 | 4.8 | 0.0 | 0.00 | 0.00 | 0.00 | 93 | 1018.0 |
| 20260902094526 | 16 | 128 | 6.4 | 0.0 | 0.00 | 0.00 | 0.00 | 93 | 1017.9 |
| 20260902094024 | 16 | 126 | 4.8 | 0.0 | 0.00 | 0.00 | 0.00 | 93 | 1017.8 |
| 20260902093519 | 16 | 136 | 3.2 | 0.0 | 0.00 | 0.00 | 0.00 | 92 | 1017.7 |
| 20260902093018 | 16 | 116 | 3.2 | 0.0 | 0.00 | 0.00 | 0.00 | 92 | 1017.6 |
| 20260902092518 | 16 | 142 | 3.2 | 0.0 | 0.00 | 0.00 | 0.00 | 93 | 1017.6 |
| 20260902092018 | 16 | 126 | 4.8 | 0.0 | 0.00 | 0.00 | 0.00 | 93 | 1017.6 |
| 20260902091518 | 16 | 142 | 4.8 | 0.0 | 0.00 | 0.00 | 0.00 | 92 | 1017.5 |
| 20260902091017 | 16 | 150 | 1.6 | 0.0 | 0.00 | 0.00 | 0.00 | 92 | 1017.5 |
| 20260902090519 | 16 | 157 | 1.6 | 0.0 | 0.00 | 0.00 | 0.00 | 92 | 1017.5 |
| 20260902090017 | 16 | 142 | 3.2 | 0.0 | 0.00 | 0.00 | 0.00 | 92 | 1017.6 |
| 20260902085518 | 16 | 169 | 3.2 | 0.0 | 0.00 | 0.00 | 0.00 | 92 | 1017.5 |
| 20260902085017 | 16 | 202 | 3.2 | 0.0 | 0.00 | 0.00 | 0.00 | 92 | 1017.4 |
| 20260902084517 | 16 | 153 | 1.6 | 0.0 | 0.00 | 0.00 | 0.00 | 92 | 1017.4 |
| 20260902084017 | 17 | 153 | 3.2 | 0.0 | 0.00 | 0.00 | 0.00 | 92 | 1017.4 |
| 20260902083515 | 17 | 146 | 3.2 | 0.0 | 0.00 | 0.00 | 0.00 | 92 | 1017.4 |
| 20260902083017 | 17 | 149 | 4.8 | 0.0 | 0.00 | 0.00 | 0.00 | 91 | 1017.3 |
| 20260902082515 | 17 | 118 | 6.4 | 0.0 | 0.00 | 0.00 | 0.00 | 92 | 1017.2 |
| 20260902082015 | 17 | 116 | 6.4 | 0.0 | 0.00 | 0.00 | 0.00 | 91 | 1017.1 |
| 20260902081514 | 17 | 132 | 8.0 | 0.0 | 0.00 | 0.00 | 0.00 | 92 | 1017.2 |
| 20260902081014 | 17 | 128 | 9.7 | 0.0 | 0.00 | 0.00 | 0.00 | 91 | 1017.3 |
| 20260902080514 | 17 | 132 | 6.4 | 0.0 | 0.00 | 0.00 | 0.00 | 91 | 1017.3 |
| 20260902080012 | 17 | 95 | 3.2 | 0.0 | 0.00 | 0.00 | 0.00 | 91 | 1017.3 |
| 20260902075512 | 17 | 142 | 4.8 | 0.0 | 0.00 | 0.00 | 0.00 | 91 | 1017.3 |
| 20260902075013 | 17 | 153 | 4.8 | 0.0 | 0.00 | 0.00 | 0.00 | 91 | 1017.3 |
| 20260902074514 | 17 | 135 | 3.2 | 0.0 | 0.00 | 0.00 | 0.00 | 91 | 1017.3 |
| 20260902074011 | 17 | 142 | 1.6 | 0.0 | 0.00 | 0.00 | 0.00 | 91 | 1017.3 |
| 20260902073513 | 17 | 119 | 3.2 | 0.0 | 0.00 | 0.00 | 0.00 | 91 | 1017.2 |
| 20260902073011 | 17 | 133 | 3.2 | 0.0 | 0.00 | 0.00 | 0.00 | 91 | 1017.2 |
| 20260902072510 | 17 | 134 | 1.6 | 0.0 | 0.00 | 0.00 | 0.00 | 91 | 1017.1 |
| 20260902072012 | 17 | 203 | 1.6 | 0.0 | 0.00 | 0.00 | 0.00 | 91 | 1017.3 |
| 20260902071510 | 17 | 110 | 3.2 | 0.0 | 0.00 | 0.00 | 0.00 | 91 | 1017.3 |
| 20260902071014 | 17 | 143 | 3.2 | 0.0 | 0.00 | 0.00 | 0.00 | 92 | 1017.2 |
| 20260902070509 | 17 | 136 | 4.8 | 0.0 | 0.00 | 0.00 | 0.00 | 91 | 1017.2 |
| 20260902070009 | 17 | 133 | 4.8 | 0.0 | 0.00 | 0.00 | 0.00 | 91 | 1017.3 |
| 20260902065509 | 17 | 162 | 6.4 | 0.0 | 0.00 | 0.00 | 0.00 | 91 | 1017.5 |
| 20260902065009 | 17 | 114 | 6.4 | 0.0 | 0.00 | 0.00 | 0.00 | 92 | 1017.3 |
| 20260902064512 | 17 | 137 | 6.4 | 0.0 | 0.00 | 0.00 | 0.00 | 92 | 1017.5 |
| 20260902064007 | 17 | 122 | 6.4 | 0.0 | 0.00 | 0.00 | 0.00 | 92 | 1017.6 |
| 20260902063507 | 17 | 113 | 8.0 | 0.0 | 0.00 | 0.00 | 0.00 | 92 | 1017.4 |
| 20260902063020 | 17 | 118 | 6.4 | 0.0 | 0.00 | 0.00 | 0.00 | 92 | 1017.5 |
| 20260902062507 | 17 | 136 | 4.8 | 0.0 | 0.00 | 0.00 | 0.00 | 92 | 1017.7 |
| 20260902062005 | 17 | 123 | 4.8 | 0.0 | 0.00 | 0.00 | 0.00 | 92 | 1017.4 |
| 20260902061505 | 17 | 139 | 6.4 | 0.0 | 0.00 | 0.00 | 0.00 | 92 | 1017.4 |
| 20260902061005 | 17 | 132 | 6.4 | 0.0 | 0.00 | 0.00 | 0.00 | 93 | 1017.3 |
| 20260902060504 | 17 | 131 | 4.8 | 0.0 | 0.00 | 0.00 | 0.00 | 92 | 1017.4 |
| 20260902060003 | 17 | 151 | 6.4 | 0.0 | 0.00 | 0.00 | 0.00 | 93 | 1017.4 |
| 20260902055503 | 17 | 128 | 8.0 | 0.0 | 0.00 | 0.00 | 0.00 | 93 | 1017.1 |
| 20260902055003 | 17 | 134 | 8.0 | 0.0 | 0.00 | 0.00 | 0.00 | 93 | 1017.2 |
| 20260902054501 | 17 | 128 | 6.4 | 0.0 | 0.00 | 0.00 | 0.00 | 93 | 1017.1 |
| 20260902054002 | 17 | 146 | 6.4 | 0.0 | 0.00 | 0.00 | 0.00 | 93 | 1017.2 |
| 20260902053606 | 17 | 134 | 4.8 | 0.0 | 0.00 | 0.00 | 0.00 | 93 | 1017.2 |
| 20260902053100 | 17 | 132 | 1.6 | 0.0 | 0.00 | 0.00 | 0.00 | 92 | 1017.2 |
| 20260902052603 | 18 | 142 | 3.2 | 0.0 | 0.00 | 0.00 | 0.00 | 93 | 1017.2 |
| 20260902052058 | 18 | 129 | 6.4 | 0.0 | 0.00 | 0.00 | 0.00 | 93 | 1017.2 |
| 20260902051600 | 18 | 136 | 6.4 | 0.0 | 0.00 | 0.00 | 0.00 | 93 | 1017.0 |
| 20260902051058 | 18 | 130 | 4.8 | 0.0 | 0.00 | 0.00 | 0.00 | 93 | 1017.0 |
| 20260902050557 | 18 | 143 | 4.8 | 0.0 | 0.00 | 0.00 | 0.00 | 93 | 1017.0 |
| 20260902050057 | 18 | 128 | 3.2 | 0.0 | 0.00 | 0.00 | 0.00 | 93 | 1016.9 |
| 20260902045559 | 18 | 163 | 3.2 | 0.0 | 0.00 | 0.00 | 0.00 | 93 | 1016.9 |
| 20260902045055 | 18 | 157 | 3.2 | 0.0 | 0.00 | 0.00 | 0.00 | 93 | 1016.8 |
| 20260902044556 | 18 | 141 | 4.8 | 0.0 | 0.00 | 0.00 | 0.00 | 93 | 1016.7 |
| 20260902044054 | 18 | 123 | 4.8 | 0.0 | 0.00 | 0.00 | 0.00 | 93 | 1016.5 |
| 20260902043552 | 18 | 137 | 8.0 | 0.0 | 0.00 | 0.00 | 0.00 | 93 | 1016.5 |
| 20260902043059 | 18 | 121 | 8.0 | 0.0 | 0.00 | 0.00 | 0.00 | 93 | 1016.3 |
| 20260902042553 | 18 | 132 | 6.4 | 0.0 | 0.00 | 0.00 | 0.00 | 93 | 1016.1 |
| 20260902042050 | 18 | 115 | 6.4 | 0.0 | 0.00 | 0.00 | 0.00 | 94 | 1016.1 |
| 20260902041550 | 18 | 114 | 4.8 | 0.0 | 0.00 | 0.00 | 0.00 | 94 | 1016.1 |
| 20260902041049 | 18 | 119 | 4.8 | 0.0 | 0.00 | 0.00 | 0.00 | 94 | 1016.1 |
| 20260902040551 | 18 | 115 | 4.8 | 0.0 | 0.00 | 0.00 | 0.00 | 94 | 1016.0 |
| 20260902040047 | 18 | 115 | 4.8 | 0.0 | 0.00 | 0.00 | 0.00 | 94 | 1015.8 |
| 20260902035547 | 18 | 101 | 4.8 | 0.0 | 0.00 | 0.00 | 0.00 | 94 | 1015.8 |
| 20260902035047 | 18 | 122 | 3.2 | 0.0 | 0.00 | 0.00 | 0.00 | 94 | 1015.8 |
| 20260902034547 | 18 | 133 | 3.2 | 0.0 | 0.00 | 0.00 | 0.00 | 94 | 1015.8 |
| 20260902034049 | 18 | 136 | 1.6 | 0.0 | 0.00 | 0.00 | 0.00 | 94 | 1015.8 |
| 20260902033546 | 18 | 200 | 0.0 | 0.0 | 0.00 | 0.00 | 0.00 | 94 | 1015.8 |
| 20260902033102 | 18 | 212 | 0.0 | 0.0 | 0.00 | 0.00 | 0.00 | 94 | 1015.8 |
| 20260902032550 | 18 | 212 | 1.6 | 0.0 | 0.00 | 0.00 | 0.00 | 94 | 1015.8 |
| 20260902032046 | 18 | 182 | 1.6 | 0.0 | 0.00 | 0.00 | 0.00 | 94 | 1016.0 |
| 20260902031546 | 18 | 153 | 4.8 | 0.0 | 0.00 | 0.00 | 0.00 | 93 | 1015.8 |
| 20260902031046 | 18 | 137 | 6.4 | 0.0 | 0.00 | 0.00 | 0.00 | 93 | 1016.0 |
| 20260902030549 | 18 | 137 | 8.0 | 0.0 | 0.00 | 0.00 | 0.00 | 93 | 1015.8 |
| 20260902030045 | 18 | 132 | 6.4 | 0.0 | 0.00 | 0.00 | 0.00 | 93 | 1015.9 |
| 20260902025546 | 18 | 133 | 4.8 | 0.0 | 0.00 | 0.00 | 0.00 | 93 | 1015.9 |
| 20260902025046 | 18 | 117 | 4.8 | 0.0 | 0.00 | 0.00 | 0.00 | 93 | 1015.9 |
| 20260902024546 | 18 | 130 | 1.6 | 0.0 | 0.00 | 0.00 | 0.00 | 94 | 1015.9 |
| 20260902024045 | 18 | 154 | 0.0 | 0.0 | 0.00 | 0.00 | 0.00 | 93 | 1015.8 |
| 20260902023544 | 18 | 173 | 1.6 | 0.0 | 0.00 | 0.00 | 0.00 | 94 | 1015.8 |
| 20260902023049 | 18 | 173 | 1.6 | 0.0 | 0.00 | 0.00 | 0.00 | 94 | 1015.8 |
| 20260902022548 | 18 | 172 | 0.0 | 0.0 | 0.00 | 0.00 | 0.00 | 94 | 1016.0 |
| 20260902022044 | 18 | 136 | 0.0 | 0.0 | 0.00 | 0.00 | 0.00 | 93 | 1016.0 |
| 20260902021544 | 18 | 136 | 0.0 | 0.0 | 0.00 | 0.00 | 0.00 | 93 | 1015.9 |
| 20260902021045 | 18 | 136 | 0.0 | 0.0 | 0.00 | 0.00 | 0.00 | 93 | 1015.9 |
| 20260902020544 | 18 | 136 | 0.0 | 0.0 | 0.00 | 0.00 | 0.00 | 93 | 1015.9 |
| 20260902020044 | 18 | 136 | 0.0 | 0.0 | 0.00 | 0.00 | 0.00 | 93 | 1016.0 |
| 20260902015544 | 18 | 136 | 0.0 | 0.0 | 0.00 | 0.00 | 0.00 | 93 | 1015.9 |
| 20260902015044 | 18 | 136 | 0.0 | 0.0 | 0.00 | 0.00 | 0.00 | 93 | 1015.6 |
| 20260902014544 | 19 | 136 | 0.0 | 0.0 | 0.00 | 0.00 | 0.00 | 93 | 1015.5 |
| 20260902014043 | 19 | 136 | 0.0 | 0.0 | 0.00 | 0.00 | 0.00 | 93 | 1015.5 |
| 20260902013543 | 19 | 136 | 0.0 | 0.0 | 0.00 | 0.00 | 0.00 | 93 | 1015.5 |
| 20260902013043 | 19 | 136 | 0.0 | 0.0 | 0.00 | 0.00 | 0.00 | 93 | 1015.5 |
| 20260902012542 | 19 | 136 | 1.6 | 0.0 | 0.00 | 0.00 | 0.00 | 93 | 1015.4 |
| 20260902012044 | 19 | 136 | 1.6 | 0.0 | 0.00 | 0.00 | 0.00 | 93 | 1015.3 |
| 20260902011543 | 19 | 138 | 1.6 | 0.0 | 0.00 | 0.00 | 0.00 | 93 | 1015.2 |
| 20260902011044 | 19 | 139 | 0.0 | 0.0 | 0.00 | 0.00 | 0.00 | 93 | 1015.1 |
| 20260902010542 | 19 | 121 | 0.0 | 0.0 | 0.00 | 0.00 | 0.00 | 93 | 1015.2 |
| 20260902010047 | 19 | 119 | 0.0 | 0.0 | 0.00 | 0.00 | 0.00 | 93 | 1015.2 |
| 20260902005543 | 19 | 119 | 0.0 | 0.0 | 0.00 | 0.00 | 0.00 | 93 | 1015.1 |
| 20260902005045 | 19 | 118 | 0.0 | 0.0 | 0.00 | 0.00 | 0.00 | 93 | 1015.2 |
| 20260902004542 | 19 | 118 | 0.0 | 0.0 | 0.00 | 0.00 | 0.00 | 93 | 1015.2 |
| 20260902004041 | 19 | 118 | 0.0 | 0.0 | 0.00 | 0.00 | 0.00 | 92 | 1015.1 |
| 20260902003545 | 19 | 118 | 1.6 | 0.0 | 0.00 | 0.00 | 0.00 | 92 | 1015.1 |
| 20260902003041 | 19 | 118 | 3.2 | 0.0 | 0.00 | 0.00 | 0.00 | 92 | 1015.0 |
| 20260902002541 | 19 | 115 | 3.2 | 0.0 | 0.00 | 0.00 | 0.00 | 92 | 1014.9 |
| 20260902002041 | 19 | 67 | 3.2 | 0.0 | 0.00 | 0.00 | 0.00 | 92 | 1015.0 |
| 20260902001541 | 19 | 65 | 3.2 | 0.0 | 0.00 | 0.00 | 0.00 | 93 | 1014.9 |
| 20260902001042 | 19 | 95 | 4.8 | 0.0 | 0.00 | 0.00 | 0.00 | 92 | 1014.8 |
| 20260902000541 | 19 | 67 | 4.8 | 0.0 | 0.00 | 0.00 | 0.00 | 92 | 1014.9 |
| 20260902000041 | 19 | 65 | 3.2 | 0.0 | 0.00 | 0.00 | 0.00 | 92 | 1014.9 |
| 20260901235544 | 20 | 103 | 1.6 | 0.0 | 0.00 | 0.00 | 0.00 | 92 | 1014.8 |
| 20260901235042 | 20 | 103 | 1.6 | 0.0 | 0.00 | 0.00 | 0.00 | 92 | 1014.8 |
| 20260901234540 | 20 | 103 | 0.0 | 0.0 | 0.00 | 0.00 | 0.00 | 92 | 1014.6 |
| 20260901234040 | 20 | 83 | 0.0 | 0.0 | 0.00 | 0.00 | 0.00 | 92 | 1014.7 |
| 20260901233541 | 20 | 83 | 0.0 | 0.0 | 0.00 | 0.00 | 0.00 | 91 | 1014.7 |
| 20260901233039 | 20 | 83 | 1.6 | 0.0 | 0.00 | 0.00 | 0.00 | 91 | 1014.8 |
| 20260901232539 | 20 | 83 | 1.6 | 0.0 | 0.00 | 0.00 | 0.00 | 91 | 1014.7 |
| 20260901232039 | 20 | 79 | 0.0 | 0.0 | 0.00 | 0.00 | 0.00 | 91 | 1014.6 |
| 20260901231541 | 20 | 79 | 1.6 | 0.0 | 0.00 | 0.00 | 0.00 | 90 | 1014.7 |
| 20260901231039 | 20 | 79 | 3.2 | 0.0 | 0.00 | 0.00 | 0.00 | 90 | 1014.6 |
| 20260901230539 | 20 | 80 | 4.8 | 0.0 | 0.00 | 0.00 | 0.00 | 91 | 1014.5 |
| 20260901230045 | 20 | 112 | 6.4 | 0.0 | 0.00 | 0.00 | 0.00 | 90 | 1014.6 |
| 20260901225538 | 20 | 117 | 6.4 | 0.0 | 0.00 | 0.00 | 0.00 | 90 | 1014.6 |
| 20260901225038 | 20 | 121 | 6.4 | 0.0 | 0.00 | 0.00 | 0.00 | 90 | 1014.6 |
| 20260901224539 | 20 | 130 | 3.2 | 0.0 | 0.00 | 0.00 | 0.00 | 90 | 1014.6 |
| 20260901224040 | 20 | 86 | 3.2 | 0.0 | 0.00 | 0.00 | 0.00 | 91 | 1014.7 |
| 20260901223538 | 20 | 98 | 3.2 | 0.0 | 0.00 | 0.00 | 0.00 | 91 | 1014.6 |
| 20260901223038 | 20 | 104 | 3.2 | 0.0 | 0.00 | 0.00 | 0.00 | 90 | 1014.7 |
| 20260901222537 | 20 | 104 | 3.2 | 0.0 | 0.00 | 0.00 | 0.00 | 90 | 1014.5 |
| 20260901222037 | 20 | 47 | 3.2 | 0.0 | 0.00 | 0.00 | 0.00 | 90 | 1014.5 |
| 20260901221603 | 20 | 84 | 3.2 | 0.0 | 0.00 | 0.00 | 0.00 | 90 | 1014.5 |
| 20260901221038 | 20 | 101 | 4.8 | 0.0 | 0.00 | 0.00 | 0.00 | 91 | 1014.3 |
| 20260901220537 | 20 | 111 | 4.8 | 0.0 | 0.00 | 0.00 | 0.00 | 91 | 1014.1 |
| 20260901220038 | 20 | 96 | 4.8 | 0.0 | 0.00 | 0.00 | 0.00 | 90 | 1014.4 |
| 20260901215538 | 20 | 74 | 6.4 | 0.0 | 0.00 | 0.00 | 0.00 | 90 | 1014.5 |
| 20260901215037 | 20 | 67 | 6.4 | 0.0 | 0.00 | 0.00 | 0.00 | 90 | 1014.7 |
| 20260901214537 | 20 | 70 | 6.4 | 0.0 | 0.00 | 0.00 | 0.00 | 90 | 1014.7 |
| 20260901214037 | 20 | 58 | 6.4 | 0.0 | 0.00 | 0.00 | 0.00 | 90 | 1014.7 |
| 20260901213535 | 20 | 57 | 4.8 | 0.0 | 0.00 | 0.00 | 0.00 | 90 | 1014.7 |
| 20260901213057 | 20 | 41 | 3.2 | 0.0 | 0.00 | 0.00 | 0.00 | 90 | 1014.7 |
| 20260901212534 | 20 | 64 | 3.2 | 0.0 | 0.00 | 0.00 | 0.00 | 90 | 1014.6 |
| 20260901212034 | 20 | 51 | 1.6 | 0.0 | 0.00 | 0.00 | 0.00 | 90 | 1014.4 |
| 20260901211541 | 20 | 115 | 1.6 | 0.0 | 0.00 | 0.00 | 0.00 | 90 | 1014.4 |
| 20260901211033 | 20 | 115 | 3.2 | 0.0 | 0.00 | 0.00 | 0.00 | 90 | 1014.4 |
| 20260901210534 | 20 | 121 | 6.4 | 0.0 | 0.00 | 0.00 | 0.00 | 91 | 1014.2 |
| 20260901210038 | 20 | 113 | 8.0 | 0.0 | 0.00 | 0.00 | 0.00 | 91 | 1014.2 |
| 20260901205532 | 20 | 114 | 9.7 | 0.0 | 0.00 | 0.00 | 0.00 | 92 | 1014.1 |
| 20260901205031 | 20 | 112 | 8.0 | 0.0 | 0.00 | 0.00 | 0.00 | 93 | 1014.1 |
| 20260901204530 | 19 | 111 | 4.8 | 0.0 | 0.00 | 0.00 | 0.00 | 93 | 1014.1 |
| 20260901204032 | 19 | 116 | 4.8 | 0.0 | 0.00 | 0.00 | 0.00 | 93 | 1014.1 |
| 20260901203534 | 19 | 119 | 4.8 | 0.0 | 0.00 | 0.00 | 0.00 | 93 | 1014.2 |
| 20260901203040 | 19 | 116 | 3.2 | 0.0 | 0.00 | 0.00 | 0.00 | 94 | 1014.1 |
| 20260901202529 | 19 | 123 | 4.8 | 0.0 | 0.00 | 0.00 | 0.00 | 94 | 1014.2 |
| 20260901202029 | 19 | 123 | 4.8 | 0.0 | 0.00 | 0.00 | 0.00 | 94 | 1014.3 |
| 20260901201529 | 19 | 122 | 1.6 | 0.0 | 0.00 | 0.00 | 0.00 | 94 | 1014.3 |
| 20260901201029 | 19 | 112 | 1.6 | 0.0 | 0.00 | 0.00 | 0.00 | 94 | 1014.4 |
| 20260901200533 | 19 | 111 | 3.2 | 0.0 | 0.00 | 0.00 | 0.00 | 94 | 1014.3 |
| 20260901200039 | 19 | 111 | 4.8 | 0.0 | 0.00 | 0.00 | 0.00 | 94 | 1014.3 |
| 20260901195530 | 19 | 105 | 4.8 | 0.0 | 0.00 | 0.00 | 0.00 | 94 | 1014.3 |
| 20260901195031 | 19 | 92 | 6.4 | 0.0 | 0.00 | 0.00 | 0.00 | 94 | 1014.4 |
| 20260901194529 | 19 | 78 | 6.4 | 0.0 | 0.00 | 0.00 | 0.00 | 95 | 1014.3 |
| 20260901194028 | 19 | 109 | 6.4 | 0.0 | 0.00 | 0.00 | 0.00 | 95 | 1014.3 |
| 20260901193528 | 19 | 126 | 6.4 | 0.0 | 0.00 | 0.00 | 0.00 | 94 | 1014.4 |
| 20260901193029 | 19 | 102 | 4.8 | 0.0 | 0.00 | 0.00 | 0.00 | 94 | 1014.3 |
| 20260901192527 | 19 | 104 | 4.8 | 0.0 | 0.00 | 0.00 | 0.00 | 94 | 1014.3 |
| 20260901192030 | 19 | 111 | 6.4 | 0.0 | 0.00 | 0.00 | 0.00 | 94 | 1014.0 |
| 20260901191528 | 19 | 113 | 6.4 | 0.0 | 0.00 | 0.00 | 0.00 | 94 | 1013.9 |
| 20260901191030 | 19 | 109 | 6.4 | 0.0 | 0.00 | 0.00 | 0.00 | 94 | 1013.9 |
| 20260901190527 | 19 | 133 | 6.4 | 0.0 | 0.00 | 0.00 | 0.00 | 94 | 1014.0 |
| 20260901190027 | 19 | 107 | 8.0 | 0.0 | 0.00 | 0.00 | 0.00 | 94 | 1014.0 |
| 20260901185527 | 19 | 117 | 8.0 | 0.0 | 0.00 | 0.00 | 0.00 | 94 | 1014.0 |
| 20260901185026 | 19 | 107 | 9.7 | 0.0 | 0.00 | 0.00 | 0.00 | 95 | 1014.0 |
| 20260901184532 | 19 | 101 | 9.7 | 0.0 | 0.00 | 0.00 | 0.00 | 95 | 1014.0 |
| 20260901184026 | 19 | 98 | 9.7 | 0.0 | 0.00 | 0.00 | 0.00 | 95 | 1014.0 |
| 20260901183525 | 19 | 113 | 8.0 | 0.0 | 0.00 | 0.00 | 0.00 | 95 | 1014.0 |
| 20260901183025 | 19 | 109 | 6.4 | 0.0 | 0.00 | 0.00 | 0.00 | 95 | 1014.0 |
| 20260901182525 | 19 | 109 | 6.4 | 0.0 | 0.00 | 0.00 | 0.00 | 96 | 1014.0 |
| 20260901182025 | 19 | 108 | 8.0 | 0.0 | 0.00 | 0.00 | 0.00 | 96 | 1013.9 |
| 20260901181524 | 19 | 115 | 8.0 | 0.0 | 0.00 | 0.00 | 0.00 | 96 | 1014.0 |
| 20260901181024 | 19 | 127 | 8.0 | 0.0 | 0.00 | 0.00 | 0.00 | 96 | 1013.9 |
| 20260901180524 | 19 | 132 | 8.0 | 0.0 | 0.00 | 0.00 | 0.00 | 96 | 1014.0 |
| 20260901180023 | 19 | 120 | 8.0 | 0.0 | 0.00 | 0.00 | 0.00 | 96 | 1013.9 |
| 20260901175523 | 19 | 119 | 6.4 | 0.0 | 0.00 | 0.00 | 0.00 | 96 | 1013.9 |
| 20260901175022 | 19 | 119 | 8.0 | 0.0 | 0.00 | 0.00 | 0.00 | 96 | 1013.8 |
| 20260901174523 | 19 | 110 | 9.7 | 0.0 | 0.00 | 0.00 | 0.00 | 95 | 1013.7 |
| 20260901174024 | 19 | 117 | 8.0 | 0.0 | 0.00 | 0.00 | 0.00 | 96 | 1013.7 |
| 20260901173521 | 19 | 116 | 6.4 | 0.0 | 0.00 | 0.00 | 0.00 | 96 | 1013.9 |
| 20260901173021 | 19 | 104 | 6.4 | 0.0 | 0.00 | 0.00 | 0.00 | 96 | 1013.8 |
| 20260901172521 | 19 | 82 | 6.4 | 0.0 | 0.00 | 0.00 | 0.00 | 96 | 1013.9 |
| 20260901172023 | 19 | 83 | 6.4 | 0.0 | 0.00 | 0.00 | 0.00 | 96 | 1013.8 |
| 20260901171524 | 19 | 106 | 8.0 | 0.0 | 0.00 | 0.00 | 0.00 | 96 | 1013.8 |
| 20260901171021 | 19 | 110 | 8.0 | 0.0 | 0.00 | 0.00 | 0.00 | 96 | 1013.7 |
| 20260901170521 | 19 | 109 | 8.0 | 0.0 | 0.00 | 0.00 | 0.00 | 96 | 1013.7 |
| 20260901170020 | 19 | 107 | 6.4 | 0.0 | 0.00 | 0.00 | 0.00 | 96 | 1013.7 |
| 20260901165521 | 19 | 109 | 4.8 | 0.0 | 0.00 | 0.00 | 0.00 | 96 | 1013.6 |
| 20260901165022 | 19 | 88 | 4.8 | 0.0 | 0.00 | 0.00 | 0.00 | 96 | 1013.6 |
| 20260901164520 | 19 | 122 | 4.8 | 0.0 | 0.00 | 0.00 | 0.00 | 97 | 1013.7 |
| 20260901164020 | 19 | 105 | 4.8 | 0.0 | 0.00 | 0.00 | 0.00 | 96 | 1013.7 |
| 20260901163518 | 18 | 92 | 1.6 | 0.0 | 0.00 | 0.00 | 0.00 | 96 | 1013.9 |
| 20260901163018 | 18 | 102 | 1.6 | 0.0 | 0.00 | 0.00 | 0.00 | 96 | 1014.0 |
| 20260901162518 | 18 | 102 | 1.6 | 0.0 | 0.00 | 0.00 | 0.00 | 96 | 1014.1 |
| 20260901162020 | 18 | 102 | 1.6 | 0.0 | 0.00 | 0.00 | 0.00 | 96 | 1014.0 |
| 20260901161517 | 18 | 93 | 3.2 | 0.0 | 0.00 | 0.00 | 0.00 | 96 | 1014.0 |
| 20260901161017 | 18 | 68 | 3.2 | 0.0 | 0.00 | 0.00 | 0.00 | 96 | 1014.1 |
| 20260901160515 | 18 | 64 | 1.6 | 0.0 | 0.00 | 0.00 | 0.00 | 96 | 1014.1 |
| 20260901160021 | 18 | 98 | 0.0 | 0.0 | 0.00 | 0.00 | 0.00 | 96 | 1014.0 |